When you browse on this site, cookies collect data to enhance your experience and personalize the content and advertising you see.
Visit our Privacy Policy to learn more. By continuing to use the site, you agree to this use of cookies and data.
  • In Schweiz
  • Länderverzeichnis
  • Für 7 Tage
  • Wassertemperatur
  • Satellitenkarten
  • Wetterkarte
  • Widgets
  • user-avatar
    Anmelden

    Stündliche Wetter Kalgoorlie

    Heute, 25 April, Donnerstag

    Zeit Temperatur Niederschläge Wind Luftdruck Luftfeuchtigkeit
    00:00 +19°C° 0 mm 5 m/S 737 mmHg 52%
    01:00 +17°C° 0 mm 5 m/S 737 mmHg 55%
    02:00 +17°C° 0 mm 4 m/S 737 mmHg 59%
    03:00 +17°C° 0 mm 4 m/S 737 mmHg 64%
    04:00 +15°C° 0 mm 4 m/S 737 mmHg 69%
    05:00 +15°C° 0 mm 4 m/S 737 mmHg 74%
    06:00 +15°C° 0 mm 4 m/S 737 mmHg 73%
    07:00 +17°C° 0 mm 4 m/S 738 mmHg 73%
    08:00 +16°C° 0 mm 5 m/S 738 mmHg 70%
    09:00 +19°C° 0 mm 5 m/S 738 mmHg 62%
    10:00 +21°C° 0 mm 5 m/S 737 mmHg 53%
    11:00 +22°C° 0 mm 5 m/S 737 mmHg 45%
    12:00 +23°C° 0 mm 5 m/S 737 mmHg 41%
    13:00 +25°C° 0 mm 5 m/S 736 mmHg 36%
    14:00 +26°C° 0 mm 5 m/S 736 mmHg 32%
    15:00 +26°C° 0 mm 5 m/S 736 mmHg 32%
    16:00 +25°C° 0 mm 5 m/S 736 mmHg 32%
    17:00 +25°C° 0 mm 5 m/S 736 mmHg 32%
    18:00 +23°C° 0 mm 5 m/S 737 mmHg 35%
    19:00 +22°C° 0 mm 5 m/S 737 mmHg 37%
    20:00 +21°C° 0 mm 5 m/S 737 mmHg 40%
    21:00 +20°C° 0 mm 5 m/S 737 mmHg 43%
    22:00 +20°C° 0 mm 5 m/S 737 mmHg 46%
    23:00 +19°C° 0 mm 5 m/S 737 mmHg 49%

    Morgen, 26 April, Freitag

    Zeit Temperatur Niederschläge Wind Luftdruck Luftfeuchtigkeit
    00:00 +17°C° 0 mm 5 m/S 738 mmHg 52%
    01:00 +17°C° 0 mm 5 m/S 738 mmHg 55%
    02:00 +16°C° 0 mm 5 m/S 738 mmHg 58%
    03:00 +15°C° 0 mm 5 m/S 738 mmHg 65%
    04:00 +15°C° 0 mm 5 m/S 738 mmHg 73%
    05:00 +14°C° 0 mm 5 m/S 738 mmHg 81%
    06:00 +14°C° 0 mm 6 m/S 738 mmHg 80%
    07:00 +14°C° 0 mm 6 m/S 739 mmHg 79%
    08:00 +15°C° 0 mm 6 m/S 739 mmHg 78%
    09:00 +16°C° 0 mm 6 m/S 739 mmHg 67%
    10:00 +19°C° 0 mm 6 m/S 739 mmHg 56%
    11:00 +21°C° 0 mm 6 m/S 739 mmHg 46%
    12:00 +22°C° 0 mm 6 m/S 738 mmHg 42%
    13:00 +22°C° 0 mm 6 m/S 737 mmHg 38%
    14:00 +23°C° 0 mm 6 m/S 737 mmHg 34%
    15:00 +23°C° 0 mm 6 m/S 737 mmHg 35%
    16:00 +22°C° 0 mm 6 m/S 737 mmHg 36%
    17:00 +22°C° 0 mm 6 m/S 737 mmHg 37%
    18:00 +21°C° 0 mm 5 m/S 737 mmHg 40%
    19:00 +20°C° 0 mm 5 m/S 738 mmHg 43%
    20:00 +19°C° 0 mm 5 m/S 738 mmHg 46%
    21:00 +17°C° 0 mm 5 m/S 738 mmHg 50%
    22:00 +17°C° 0 mm 6 m/S 738 mmHg 55%
    23:00 +16°C° 0 mm 6 m/S 738 mmHg 59%

    übermorgen, 27 April, Samstag

    Zeit Temperatur Niederschläge Wind Luftdruck Luftfeuchtigkeit
    00:00 +15°C° 0 mm 6 m/S 738 mmHg 63%
    01:00 +15°C° 0 mm 5 m/S 738 mmHg 67%
    02:00 +14°C° 0 mm 5 m/S 738 mmHg 71%
    03:00 +14°C° 0 mm 5 m/S 738 mmHg 74%
    04:00 +13°C° 0 mm 4 m/S 738 mmHg 77%
    05:00 +13°C° 0 mm 3 m/S 738 mmHg 79%
    06:00 +13°C° 0 mm 4 m/S 738 mmHg 76%
    07:00 +14°C° 0 mm 4 m/S 739 mmHg 74%
    08:00 +14°C° 0 mm 5 m/S 739 mmHg 71%
    09:00 +16°C° 0 mm 5 m/S 739 mmHg 62%
    10:00 +19°C° 0 mm 5 m/S 739 mmHg 53%
    11:00 +20°C° 0 mm 5 m/S 739 mmHg 44%
    12:00 +21°C° 0 mm 5 m/S 738 mmHg 40%
    13:00 +22°C° 0 mm 5 m/S 737 mmHg 35%
    14:00 +23°C° 0 mm 4 m/S 737 mmHg 31%
    15:00 +23°C° 0 mm 4 m/S 737 mmHg 31%
    16:00 +23°C° 0 mm 4 m/S 737 mmHg 31%
    17:00 +23°C° 0 mm 4 m/S 737 mmHg 31%
    18:00 +22°C° 0 mm 4 m/S 737 mmHg 34%
    19:00 +21°C° 0 mm 4 m/S 737 mmHg 37%
    20:00 +20°C° 0 mm 4 m/S 737 mmHg 40%
    21:00 +19°C° 0 mm 4 m/S 737 mmHg 43%
    22:00 +19°C° 0 mm 5 m/S 737 mmHg 45%
    23:00 +17°C° 0 mm 5 m/S 737 mmHg 48%

    28 April, Sonntag

    Zeit Temperatur Niederschläge Wind Luftdruck Luftfeuchtigkeit
    00:00 +18°C° 0 mm 4 m/S 737 mmHg 50%
    01:00 +17°C° 0 mm 4 m/S 736 mmHg 52%
    02:00 +17°C° 0 mm 4 m/S 736 mmHg 54%
    03:00 +15°C° 0 mm 4 m/S 736 mmHg 56%
    04:00 +15°C° 0 mm 4 m/S 736 mmHg 57%
    05:00 +14°C° 0 mm 3 m/S 736 mmHg 59%
    06:00 +15°C° 0 mm 4 m/S 737 mmHg 56%
    07:00 +17°C° 0 mm 4 m/S 737 mmHg 53%
    08:00 +16°C° 0 mm 5 m/S 737 mmHg 50%
    09:00 +19°C° 0 mm 5 m/S 737 mmHg 43%
    10:00 +21°C° 0 mm 5 m/S 737 mmHg 37%
    11:00 +23°C° 0 mm 5 m/S 737 mmHg 30%
    12:00 +25°C° 0 mm 5 m/S 736 mmHg 28%
    13:00 +26°C° 0 mm 4 m/S 735 mmHg 25%
    14:00 +27°C° 0 mm 4 m/S 734 mmHg 23%
    15:00 +27°C° 0 mm 4 m/S 734 mmHg 23%
    16:00 +26°C° 0 mm 4 m/S 734 mmHg 23%
    17:00 +26°C° 0 mm 3 m/S 733 mmHg 24%
    18:00 +25°C° 0 mm 3 m/S 734 mmHg 25%
    19:00 +24°C° 0 mm 3 m/S 734 mmHg 27%
    20:00 +23°C° 0 mm 2 m/S 734 mmHg 29%
    21:00 +21°C° 0 mm 3 m/S 734 mmHg 30%
    22:00 +21°C° 0 mm 3 m/S 734 mmHg 31%
    23:00 +20°C° 0 mm 4 m/S 734 mmHg 33%

    29 April, Montag

    Zeit Temperatur Niederschläge Wind Luftdruck Luftfeuchtigkeit
    00:00 +20°C° 0 mm 4 m/S 734 mmHg 34%
    01:00 +19°C° 0 mm 4 m/S 733 mmHg 35%
    02:00 +19°C° 0 mm 4 m/S 733 mmHg 36%
    03:00 +19°C° 0 mm 4 m/S 733 mmHg 36%
    04:00 +18°C° 0 mm 4 m/S 733 mmHg 36%
    05:00 +18°C° 0 mm 4 m/S 733 mmHg 37%
    06:00 +19°C° 0 mm 4 m/S 733 mmHg 35%
    07:00 +19°C° 0 mm 5 m/S 733 mmHg 34%
    08:00 +20°C° 0 mm 5 m/S 733 mmHg 32%
    09:00 +22°C° 0 mm 5 m/S 733 mmHg 29%
    10:00 +24°C° 0 mm 6 m/S 733 mmHg 26%
    11:00 +27°C° 0 mm 6 m/S 733 mmHg 22%
    12:00 +28°C° 0 mm 6 m/S 732 mmHg 21%
    13:00 +29°C° 0 mm 5 m/S 732 mmHg 20%
    14:00 +30°C° 0 mm 5 m/S 731 mmHg 19%
    15:00 +29°C° 0 mm 4 m/S 731 mmHg 20%
    16:00 +29°C° 0 mm 3 m/S 731 mmHg 21%
    17:00 +28°C° 0 mm 2 m/S 731 mmHg 22%
    18:00 +27°C° 0 mm 3 m/S 732 mmHg 24%
    19:00 +26°C° 0 mm 3 m/S 732 mmHg 25%
    20:00 +25°C° 0 mm 4 m/S 733 mmHg 26%
    21:00 +23°C° 0 mm 5 m/S 733 mmHg 38%
    22:00 +21°C° 0 mm 6 m/S 733 mmHg 51%
    23:00 +18°C° 0 mm 8 m/S 733 mmHg 63%

    30 April, Dienstag

    Zeit Temperatur Niederschläge Wind Luftdruck Luftfeuchtigkeit
    00:00 +18°C° 0 mm 8 m/S 733 mmHg 68%
    01:00 +17°C° 0 mm 8 m/S 733 mmHg 73%
    02:00 +17°C° 0 mm 8 m/S 733 mmHg 78%
    03:00 +16°C° 0 mm 7 m/S 734 mmHg 78%
    04:00 +16°C° 0 mm 7 m/S 734 mmHg 78%
    05:00 +15°C° 0 mm 7 m/S 734 mmHg 79%
    06:00 +15°C° 0 mm 7 m/S 735 mmHg 78%
    07:00 +15°C° 0 mm 7 m/S 735 mmHg 77%
    08:00 +15°C° 0 mm 6 m/S 736 mmHg 75%
    09:00 +16°C° 0 mm 6 m/S 736 mmHg 69%
    10:00 +17°C° 0 mm 6 m/S 736 mmHg 62%
    11:00 +19°C° 0 mm 5 m/S 736 mmHg 56%
    12:00 +20°C° 0 mm 5 m/S 735 mmHg 51%
    13:00 +21°C° 0 mm 5 m/S 735 mmHg 46%
    14:00 +22°C° 0 mm 5 m/S 734 mmHg 41%
    15:00 +22°C° 0 mm 5 m/S 734 mmHg 40%
    16:00 +22°C° 0 mm 4 m/S 735 mmHg 40%
    17:00 +22°C° 0 mm 4 m/S 735 mmHg 39%
    18:00 +21°C° 0 mm 4 m/S 736 mmHg 41%
    19:00 +20°C° 0 mm 4 m/S 736 mmHg 44%
    20:00 +19°C° 0 mm 5 m/S 737 mmHg 46%
    21:00 +17°C° 0 mm 5 m/S 737 mmHg 48%
    22:00 +17°C° 0 mm 6 m/S 737 mmHg 51%
    23:00 +16°C° 0 mm 7 m/S 737 mmHg 53%
    Mehr zeigen